map of KTQE home
Great Circle Mapper logo
KTQE - Airport
Location
City:  Tekamah, Nebraska, United States
Name:Tekamah Municipal Airport
ICAO:KTQE
FAA LID:TQE

Details
Type:Airport (Airfield)
Use:Public/Civil
Latitude:4145'49"N (41.763537)
Longitude:9610'41"W (-96.177938)
Datum:WGS 1984
Elevation:1026 ft (313 m)
Variation:2.83E (WMM2015 magnetic declination)
-0.09 annual change
Runways:1
Longest:4000 × 75 ft (1219 × 23 m), paved

Time
Time Zone:UTC-6 (DST-5)
Local Time:

Weather
METAR:KTQE 271954Z AUTO 23004KT 10SM SCT035 27/18 A3000 RMK AO2 SLP149 T02670183

Related Locations
Nearby:
Farthest:MQZ: 10659 mi / 17154 km
Margaret River [Margaret River Airport], WA, AU

Find:

   beyond  
but within

Other Information
Maps:
NOTAMs:
Links:
Sources:

  
flag of United States
flag of Nebraska
  

Sectional Chart

Flight Planning
at skyvector.com

Satellite Image

Google Maps Satellite view

 

Copyright © 2004-2016 Karl L. Swartz. All rights reserved.
The Great Circle Mapper name and logo are trademarks of the Great Circle Mapper.
All other trademarks mentioned herein belong to their respective owners.
Please see credits for attibutions and further copyright information.

  Follow gcmap on Facebook Follow gcmap on Twitter Follow gcmap on Google+ GCmap on LinkedIn

hCard Microformat

Geo Microformat